Simultaneous Nadir Overpasses (SNOs) Predictions

Prediction of SNOs between AQUA and NOAA-19 Satellite Orbit:

Table of predicted SNOs for the next 14.0 days since TLE Epoch: 5/17/2025
Index Date (AQUA) Time (AQUA) Lat,Lon (AQUA) SZA (AQUA ) Date (NOAA-19) Time (NOAA-19) Lat,Lon (NOAA-19) SZA (NOAA-19 ) Distance(km) Time Diff (sec)
1 05/18/2025 13:28:20 75.71, -17.11 56.03 05/18/2025 13:28:11 75.72, -17.16 56.04 2.15 9
2 05/20/2025 15:35:45 -75.73, 131.01 124.39 05/20/2025 15:35:31 -75.72, 131.04 124.41 1.67 14
3 05/20/2025 16:25:09 75.97, -62.06 55.83 05/20/2025 16:26:19 75.98, -60.76 55.88 35.27 70
4 05/22/2025 17:43:10 75.69, -80.67 55.16 05/22/2025 17:42:42 75.72, -80.70 55.19 3.28 28
5 05/22/2025 18:32:29 -75.78, 86.75 124.77 05/22/2025 18:33:42 -75.86, 87.01 124.67 11.58 73
6 05/24/2025 19:50:34 -75.71, 67.47 125.21 05/24/2025 19:50:03 -75.70, 67.43 125.23 2.05 31
7 05/24/2025 20:39:54 75.77,-125.02 54.84 05/24/2025 20:40:54 75.79,-124.98 54.87 2.80 60
8 05/26/2025 21:57:58 75.68,-144.24 54.40 05/26/2025 21:57:13 75.70,-144.33 54.41 2.99 45
9 05/26/2025 22:47:17 -75.76, 23.21 125.54 05/26/2025 22:48:15 -75.78, 23.18 125.51 2.07 58
10 05/29/2025 00:05:21 -75.70, 3.93 125.93 05/29/2025 00:04:34 -75.69, 3.85 125.94 2.47 47
11 05/29/2025 00:54:41 75.76, 171.41 54.13 05/29/2025 00:55:25 75.75, 171.34 54.13 2.15 44
12 05/31/2025 02:12:44 75.68, 152.20 53.75 05/31/2025 02:11:43 75.69, 152.10 53.75 2.95 61



Historial Predications of SNOs between AQUA and NOAA-19
